This demonstration page uses our WeatherBlox Daily Observations layout. Learn more.

Left ArrowRight Arrow

44.8408, -93.29828

Hourly Observations for March 26, 2020

Temp ( °F °C ) Dew Point ( °F °C ) Humidity (%) Winds ( mph kmh ) Pressure ( in mb ) Visibility ( mi km ) Precip ( " mm )
12:53 am 00:53 Cloudy 37 2.8 30 -1.1 76 76 N 9 15 29.90 1012 10 16 0.00 0.00
1:44 am 01:44 Mostly Cloudy 36 2.2 29 -1.7 76 76 NNE 7 11 29.90 1012 10 16 0.00 0.00
1:53 am 01:53 Mostly Cloudy 36 2.2 29 -1.7 76 76 NE 6 9 29.87 1012 10 16 0.00 0.00
2:53 am 02:53 Clear 33 0.6 28 -2.2 82 82 N 5 7 29.88 1012 10 16 0.00 0.00
3:53 am 03:53 Clear 32 0 28 -2.2 85 85 NNW 7 11 29.90 1013 10 16 0.00 0.00
4:53 am 04:53 Mostly Cloudy 30 -1.1 27 -2.8 88 88 N 6 9 29.90 1013 10 16 0.00 0.00
5:53 am 05:53 Mostly Cloudy 31 -0.6 28 -2.2 89 89 Calm 29.91 1013 10 16 0.00 0.00
6:53 am 06:53 Mostly Cloudy 30 -1.1 27 -2.8 88 88 N 5 7 29.91 1013 10 16 0.00 0.00
7:53 am 07:53 Mostly Cloudy 31 -0.6 27 -2.8 85 85 N 8 13 29.92 1013 10 16 0.00 0.00
8:53 am 08:53 Mostly Cloudy 33 0.6 28 -2.2 82 82 NNE 5 7 29.93 1014 10 16 0.00 0.00
9:53 am 09:53 Mostly Cloudy 37 2.8 29 -1.7 73 73 ENE 3 6 29.93 1014 10 16 0.00 0.00
10:53 am 10:53 Mostly Cloudy 40 4.4 32 0 73 73 E 6 9 29.93 1014 10 16 0.00 0.00
11:53 am 11:53 Mostly Cloudy 42 5.6 32 0 68 68 Calm 29.93 1013 10 16 0.00 0.00
12:53 pm 12:53 Partly Cloudy 44 6.7 32 0 63 63 S 5 7 29.90 1013 10 16 0.00 0.00
1:53 pm 13:53 Mostly Sunny 49 9.4 31 -0.6 50 50 ENE 5 7 29.89 1012 10 16 0.00 0.00
2:53 pm 14:53 Mostly Cloudy 47 8.3 31 -0.6 54 54 Calm 29.86 1011 10 16 0.00 0.00
3:53 pm 15:53 Mostly Cloudy 51 10.6 31 -0.6 46 46 VRB 3 6 29.85 1011 10 16 0.00 0.00
4:53 pm 16:53 Mostly Cloudy 50 10 29 -1.7 44 44 SE 3 6 29.86 1011 10 16 0.00 0.00
5:53 pm 17:53 Mostly Cloudy 50 10 29 -1.7 44 44 VRB 5 7 29.87 1012 10 16 0.00 0.00
6:53 pm 18:53 Mostly Cloudy 50 10 29 -1.7 44 44 VRB 6 9 29.88 1012 10 16 0.00 0.00
7:53 pm 19:53 Mostly Cloudy 49 9.4 29 -1.7 46 46 WSW 3 6 29.89 1012 10 16 0.00 0.00
8:53 pm 20:53 Cloudy 48 8.9 32 0 54 54 SW 6 9 29.90 1013 10 16 0.00 0.00
9:53 pm 21:53 Mostly Cloudy 47 8.3 31 -0.6 54 54 SW 3 6 29.91 1013 10 16 0.00 0.00
10:53 pm 22:53 Mostly Cloudy 45 7.2 31 -0.6 58 58 Calm 29.91 1013 10 16 0.00 0.00
11:53 pm 23:53 Mostly Cloudy 43 6.1 32 0 65 65 Calm 29.90 1013 10 16 0.00 0.00

Powered by AerisWeather